GW5423 Weather Reports


Display with metric or nautical units.
time (UTC)temp
F
wind
direction
speed
MPH
gust
MPH
rain 1hr
in
rain 24hr
in
rain mn
in
humidity
%
barometer
mb
20260505052054 44 243 3.0 7.0 0.00 0.04 0.04 69 1011.6
20260505051558 45 254 2.0 7.0 0.00 0.04 0.04 69 1011.6
20260505051052 45 246 3.0 7.0 0.00 0.04 0.04 69 1011.6
20260505050553 45 242 2.0 5.0 0.00 0.04 0.04 69 1011.8
20260505041556 46 269 2.0 7.0 0.00 0.04 0.04 66 1011.1
20260505041054 46 299 3.0 7.0 0.00 0.04 0.04 66 1011.1
20260505040554 47 289 3.0 8.0 0.00 0.04 0.04 65 1011.2
20260505035555 47 298 4.0 9.0 0.00 0.04 0.04 64 1011.0
20260505035057 48 298 4.0 9.0 0.00 0.04 0.04 63 1011.0
20260505034556 48 290 4.0 8.0 0.00 0.04 0.04 63 1010.9
20260505034052 48 311 4.0 8.0 0.00 0.04 0.04 63 1010.9
20260505033554 48 339 3.0 7.0 0.00 0.04 0.04 63 1011.0
20260505033100 48 335 3.0 8.0 0.00 0.04 0.04 62 1010.7
20260505032553 49 286 3.0 8.0 0.00 0.04 0.04 62 1010.7
20260505032058 49 328 3.0 7.0 0.00 0.04 0.04 61 1010.7
20260505031555 49 323 3.0 7.0 0.00 0.04 0.04 62 1010.6
20260505031054 49 292 4.0 7.0 0.00 0.04 0.04 60 1010.6
20260505030558 49 273 3.0 7.0 0.00 0.04 0.04 61 1010.5
20260505030057 50 288 3.0 8.0 0.00 0.04 0.04 60 1010.4
20260505025554 49 277 4.0 8.0 0.00 0.04 0.04 59 1010.4
20260505025053 49 342 4.0 8.0 0.00 0.04 0.04 60 1010.3
20260505024554 49 312 4.0 8.0 0.00 0.04 0.04 61 1010.2
20260505024054 49 300 4.0 7.0 0.00 0.04 0.04 61 1010.3
20260505023552 50 289 3.0 7.0 0.00 0.04 0.04 60 1010.2
20260505023054 50 282 2.0 4.0 0.00 0.04 0.04 60 1010.2
20260505022552 50 305 1.0 4.0 0.00 0.04 0.04 60 1010.2
20260505022057 50 275 2.0 4.0 0.00 0.04 0.04 59 1010.2
20260505021553 51 257 2.0 4.0 0.00 0.04 0.04 59 1010.2
20260505021055 51 244 2.0 4.0 0.00 0.04 0.04 58 1010.2
20260505020554 52 221 2.0 4.0 0.00 0.04 0.04 60 1010.3
20260505020054 52 265 2.0 5.0 0.00 0.04 0.04 57 1010.1
20260505015554 53 279 2.0 6.0 0.00 0.04 0.04 57 1010.1
20260505015054 53 269 3.0 6.0 0.00 0.04 0.04 55 1010.2
20260505014556 54 239 1.0 6.0 0.00 0.04 0.04 55 1010.2
20260505014054 54 292 1.0 8.0 0.00 0.04 0.04 51 1010.2
20260505013554 54 329 3.0 8.0 0.00 0.04 0.04 50 1010.3
20260505013054 54 317 3.0 8.0 0.00 0.04 0.04 50 1010.4
20260505012554 54 251 3.0 7.0 0.00 0.04 0.04 48 1010.4
20260505012055 55 261 4.0 8.0 0.00 0.04 0.04 47 1010.2
20260505011600 55 257 4.0 10.0 0.00 0.04 0.04 47 1010.3
20260505011055 55 228 4.0 12.0 0.00 0.04 0.04 49 1010.3
20260505010554 55 271 6.0 12.0 0.00 0.04 0.04 50 1010.3
20260505010104 55 243 6.0 12.0 0.00 0.04 0.04 51 1010.4
20260505005555 55 284 6.0 12.0 0.00 0.04 0.04 52 1010.6
20260505005057 55 257 4.0 12.0 0.00 0.04 0.04 53 1010.7
20260505004552 54 279 6.0 12.0 0.00 0.04 0.04 54 1010.7
20260505004055 54 252 6.0 12.0 0.00 0.04 0.04 56 1010.7
20260505003554 54 239 6.0 11.0 0.00 0.04 0.04 54 1010.7
20260505003056 53 221 5.0 10.0 0.00 0.04 0.04 54 1010.9
20260505002554 53 268 6.0 10.0 0.00 0.04 0.04 55 1010.9
20260505002054 52 232 2.0 14.0 0.00 0.04 0.04 56 1011.1
20260505001554 52 323 2.0 14.0 0.01 0.04 0.04 54 1011.3
20260505001051 51 296 7.0 14.0 0.01 0.04 0.04 53 1011.3
20260505000551 51 314 6.0 13.0 0.02 0.04 0.04 58 1011.6
20260505000101 50 309 3.0 11.0 0.03 0.04 0.04 62 1011.9
20260504235555 49 273 5.0 11.0 0.03 0.04 0.04 65 1012.1
20260504235055 49 273 6.0 10.0 0.04 0.04 0.04 68 1012.3
20260504234605 49 261 6.0 15.0 0.04 0.04 0.04 68 1012.4
20260504234057 48 282 6.0 15.0 0.04 0.04 0.04 68 1012.4
20260504233554 48 282 7.0 18.0 0.04 0.04 0.04 68 1012.5
20260504233059 48 282 9.0 18.0 0.04 0.04 0.04 69 1012.6
20260504232555 48 261 11.0 20.0 0.04 0.04 0.04 70 1012.4
20260504232056 48 277 10.0 20.0 0.04 0.04 0.04 70 1012.5
20260504231553 48 257 12.0 25.0 0.03 0.03 0.03 70 1012.5
20260504231055 49 273 12.0 26.0 0.03 0.03 0.03 68 1012.5
20260504230554 50 275 16.0 26.0 0.02 0.02 0.02 65 1012.6
20260504230055 50 290 13.0 28.0 0.01 0.01 0.01 63 1012.6
20260504225552 51 296 16.0 28.0 0.01 0.01 0.01 62 1012.3
20260504225057 51 284 13.0 25.0 0.00 0.00 0.00 59 1012.2
20260504224554 51 252 12.0 23.0 0.00 0.00 0.00 60 1011.7
20260504224055 52 225 11.0 21.0 0.00 0.00 0.00 58 1011.6
20260504223555 52 298 7.0 19.0 0.00 0.00 0.00 56 1011.6
20260504223055 53 271 8.0 19.0 0.00 0.00 0.00 53 1011.6
20260504222555 54 261 12.0 19.0 0.00 0.00 0.00 52 1011.7
20260504222058 55 255 9.0 21.0 0.00 0.00 0.00 51 1011.6
20260504221551 56 86 8.0 21.0 0.00 0.00 0.00 51 1011.4
20260504221054 56 141 11.0 22.0 0.00 0.00 0.00 48 1011.2
20260504220554 57 163 8.0 22.0 0.00 0.00 0.00 46 1011.2
20260504215552 58 115 8.0 21.0 0.00 0.00 0.00 44 1011.1
20260504215051 59 154 9.0 21.0 0.00 0.00 0.00 42 1011.2
20260504214600 60 157 9.0 21.0 0.00 0.00 0.00 43 1011.1
20260504214053 61 171 10.0 21.0 0.00 0.00 0.00 39 1011.2
20260504213552 62 34 10.0 21.0 0.00 0.00 0.00 37 1011.4
20260504213111 64 138 6.0 18.0 0.00 0.00 0.00 32 1011.5
20260504212555 64 74 3.0 9.0 0.00 0.00 0.00 30 1011.1
20260504212055 64 78 3.0 14.0 0.00 0.00 0.00 30 1011.1
20260504211556 64 239 3.0 14.0 0.00 0.00 0.00 28 1011.1
20260504211054 65 38 4.0 14.0 0.00 0.00 0.00 31 1011.2
20260504210554 65 66 4.0 14.0 0.00 0.00 0.00 30 1011.3
20260504210104 65 9 3.0 14.0 0.00 0.00 0.00 30 1011.4
20260504205555 66 29 6.0 14.0 0.00 0.00 0.00 31 1011.5
20260504205054 65 169 5.0 14.0 0.00 0.00 0.00 30 1011.5
20260504204605 64 69 4.0 14.0 0.00 0.00 0.00 32 1011.5
20260504204054 63 69 3.0 15.0 0.00 0.00 0.00 32 1011.5
20260504203552 62 16 5.0 15.0 0.00 0.00 0.00 33 1011.5
20260504203058 62 111 8.0 15.0 0.00 0.00 0.00 31 1011.6
20260504202555 63 22 7.0 15.0 0.00 0.00 0.00 31 1011.7
20260504202057 63 335 5.0 21.0 0.00 0.00 0.00 32 1011.7
20260504201553 63 47 7.0 21.0 0.00 0.00 0.00 33 1011.8
20260504201055 64 27 7.0 19.0 0.00 0.00 0.00 32 1011.6
20260504200555 64 344 8.0 19.0 0.00 0.00 0.00 30 1011.7
20260504200059 65 344 8.0 19.0 0.00 0.00 0.00 29 1011.8
20260504195554 66 57 11.0 19.0 0.00 0.00 0.00 29 1011.8
20260504195054 65 44 9.0 19.0 0.00 0.00 0.00 29 1011.8
20260504194559 65 53 4.0 16.0 0.00 0.00 0.00 30 1011.8
20260504194054 64 339 7.0 16.0 0.00 0.00 0.00 31 1011.8
20260504193554 64 25 4.0 17.0 0.00 0.00 0.00 32 1011.8
20260504193113 63 344 7.0 17.0 0.00 0.00 0.00 32 1012.0
20260504192553 62 21 5.0 18.0 0.00 0.00 0.00 34 1012.0
20260504192054 62 45 5.0 18.0 0.00 0.00 0.00 33 1012.0
20260504191559 62 30 6.0 18.0 0.00 0.00 0.00 32 1011.9
20260504191052 62 22 2.0 8.0 0.00 0.00 0.00 31 1012.1
20260504190555 62 360 3.0 8.0 0.00 0.00 0.00 30 1012.0
20260504190107 61 254 2.0 7.0 0.00 0.00 0.00 33 1012.1
20260504185554 60 178 1.0 11.0 0.00 0.00 0.00 32 1012.2
20260504185054 60 153 3.0 11.0 0.00 0.00 0.00 31 1012.4
20260504184556 61 230 3.0 18.0 0.00 0.00 0.00 32 1012.4
20260504184057 61 229 4.0 18.0 0.00 0.00 0.00 31 1012.3
20260504183555 62 93 5.0 19.0 0.00 0.00 0.00 31 1012.4
20260504183101 61 102 7.0 19.0 0.00 0.00 0.00 32 1012.3
20260504182554 61 167 8.0 19.0 0.00 0.00 0.00 32 1012.4
20260504182052 61 120 7.0 12.0 0.00 0.00 0.00 33 1012.5
20260504181559 61 153 4.0 10.0 0.00 0.00 0.00 36 1012.5
20260504181052 61 120 3.0 10.0 0.00 0.00 0.00 35 1012.5
20260504180557 61 171 4.0 10.0 0.00 0.00 0.00 34 1012.5
20260504180138 61 155 6.0 10.0 0.00 0.00 0.00 35 1012.5
20260504175555 62 138 4.0 9.0 0.00 0.00 0.00 34 1012.5
20260504175055 63 159 3.0 9.0 0.00 0.00 0.00 33 1012.5
20260504174555 63 193 3.0 7.0 0.00 0.00 0.00 31 1012.5
20260504174055 63 0 1.0 7.0 0.00 0.00 0.00 30 1012.5
20260504173555 63 178 2.0 7.0 0.00 0.00 0.00 31 1012.5
20260504173056 64 141 2.0 6.0 0.00 0.00 0.00 32 1012.5
20260504172555 64 139 1.0 10.0 0.00 0.00 0.00 30 1012.5
20260504172056 64 149 1.0 10.0 0.00 0.00 0.00 29 1012.6
20260504171558 64 53 5.0 10.0 0.00 0.00 0.00 29 1012.5
20260504171054 64 32 2.0 9.0 0.00 0.00 0.00 30 1012.5
20260504170555 64 76 5.0 9.0 0.00 0.00 0.00 32 1012.6
20260504151052 51 45 3.0 7.0 0.00 0.00 0.00 46 1013.4
20260504150553 50 49 2.0 5.0 0.00 0.00 0.00 46 1013.5
20260504141052 44 205 1.0 2.0 0.00 0.00 0.00 61 1013.9
20260504140552 43 83 0.0 3.0 0.00 0.00 0.00 62 1013.9
20260504140103 42 105 1.0 3.0 0.00 0.00 0.00 64 1013.8
20260504130553 37 255 2.0 5.0 0.00 0.00 0.00 62 1013.8
20260504120105 37 279 1.0 3.0 0.00 0.00 0.00 63 1013.4
20260504110552 38 22 0.0 3.0 0.00 0.00 0.00 62 1013.4
20260504100551 37 284 1.0 3.0 0.00 0.00 0.00 62 1013.5
20260504100114 37 321 1.0 2.0 0.00 0.00 0.00 62 1013.5
20260504081558 41 0 0.0 3.0 0.00 0.00 0.00 53 1013.4
20260504081051 41 0 1.0 4.0 0.00 0.00 0.00 52 1013.3
20260504080551 41 316 1.0 4.0 0.00 0.00 0.00 49 1013.5
20260504060159 44 229 2.0 4.0 0.00 0.00 0.00 46 1014.1